Wind_Speed
2 1 3 2 1 1 3 4 2 6 6 2 12 2 5 6 2 3 16 11 16 16 16 13 12 12 11 12 12 13 13 13 12 12 12 12 12 15 15 16 16 16 16 16 17 17 17 18 17
1 2 3 1 2 4 4 4 6 4 6 13 12 9 5 5 5 15 13 16 14 18 16 12 10 12 11 10 12 12 14 13 10 11 13 14 16 17 16 16 16 17 15 18 17 17 18 19 18
2 2 1 2 2 4 3 6 6 13 10 7 5 7 4 3 12 13 16 18 16 16 14 12 10 12 12 11 12 10 9 10 11 11 13 16 16 16 17 17 17 17 18 19 20 20 19 18 17
1 2 2 3 9 4 5 8 15 8 3 4 11 9 7 8 12 13 19 19 17 18 15 14 13 13 14 15 12 9 14 13 10 13 14 16 17 16 16 17 17 17 19 20 17 17 16 16 17
1 1 3 4 4 3 7 10 4 2 4 4 5 8 10 4 10 19 19 18 17 18 15 14 14 13 17 16 11 12 14 10 12 14 16 17 16 17 16 16 16 18 18 16 18 17 17 17 16
1 1 3 4 3 1 4 6 3 7 6 9 15 12 5 7 17 21 18 18 16 18 15 15 17 17 18 14 11 11 11 12 13 16 17 17 16 14 16 16 16 17 18 19 16 15 17 17 16
1 2 3 7 6 3 2 5 5 5 5 6 10 6 7 11 21 20 18 16 16 16 16 16 15 13 11 11 8 10 11 12 12 16 18 14 15 16 16 14 16 17 16 14 16 17 17 16 16
3 3 3 1 6 4 1 3 3 3 5 10 7 6 8 18 22 19 16 15 16 16 16 14 13 11 10 10 8 10 11 13 13 16 15 14 14 14 14 14 16 18 16 16 15 14 14 15 15
2 2 4 5 5 3 1 3 4 0 11 4 3 6 15 24 22 19 18 15 15 16 15 14 13 11 10 10 10 10 12 12 13 13 13 13 14 15 15 15 16 17 16 14 13 12 12 12 13
3 1 4 6 6 5 6 3 5 2 13 3 7 13 21 22 20 19 18 16 14 15 16 15 14 12 10 10 10 11 12 12 13 12 13 14 15 16 16 16 17 16 13 12 12 11 10 10 9
2 2 1 5 8 12 6 4 1 2 9 8 13 22 22 20 18 17 17 14 15 15 17 16 13 12 10 10 11 11 12 13 12 12 14 17 18 19 19 18 16 15 13 11 10 8 8 7 7
3 2 2 7 8 7 7 2 2 1 1 8 17 25 24 21 19 16 16 15 16 16 17 14 13 12 10 10 12 13 14 13 13 13 16 18 17 18 17 15 15 13 12 10 8 6 4 5 6
3 6 7 9 9 10 5 1 4 6 2 11 23 21 20 19 16 15 13 14 15 16 16 16 14 13 12 11 12 16 15 15 14 14 16 16 15 14 13 11 11 11 9 8 7 5 4 4 5
4 10 13 8 8 6 9 2 4 3 13 17 25 21 18 19 17 16 16 16 15 16 16 15 15 13 12 14 15 15 14 14 14 14 15 14 12 11 10 10 10 9 9 7 7 7 7 7 7
13 10 8 5 6 4 10 3 5 4 13 19 22 20 17 17 18 17 15 15 15 16 16 16 16 14 13 17 16 14 12 13 13 14 14 11 9 8 7 7 6 7 7 5 6 5 4 5 6
2 2 2 4 6 5 4 1 6 8 15 17 21 20 18 18 18 18 16 15 15 16 16 16 16 15 15 18 16 14 13 15 14 14 12 9 9 8 6 5 5 7 4 3 3 1 1 4 3
2 2 2 5 7 5 7 1 4 13 16 17 20 20 20 18 20 20 20 17 16 15 18 17 17 17 17 19 16 14 13 15 14 12 10 10 9 8 5 3 2 3 1 0 0 1 2 3 5
5 3 2 2 9 6 9 8 2 10 16 17 19 20 20 20 24 21 22 21 19 17 17 17 18 19 19 19 18 16 15 17 14 11 11 9 9 7 6 4 3 3 1 1 1 3 1 3 4
2 3 1 2 8 7 11 8 8 9 14 16 19 21 22 24 19 19 21 23 22 20 20 20 19 21 20 19 18 18 17 17 13 13 12 10 8 8 7 5 5 4 4 2 3 3 1 2 3
3 3 1 4 7 7 4 10 9 13 18 22 22 23 25 28 19 20 23 21 24 23 21 21 20 24 22 21 18 18 16 17 16 12 13 12 8 11 7 7 6 8 6 5 4 2 1 4 3
7 7 4 1 7 4 1 3 5 7 12 17 22 27 23 24 28 24 24 24 23 26 22 22 22 22 25 23 20 22 20 19 20 15 14 13 9 9 9 8 9 8 8 9 7 7 5 5 5
10 10 3 9 7 1 5 1 2 6 10 13 18 22 25 23 25 30 24 26 24 25 23 22 20 21 24 24 23 19 22 20 20 15 13 12 8 7 9 8 8 9 10 11 12 9 9 7 7
7 4 9 11 4 3 5 3 3 2 8 13 15 17 21 23 26 32 31 27 25 23 21 21 20 19 24 27 27 23 21 23 20 17 14 13 11 9 8 10 7 6 7 11 12 11 10 11 10
9 9 8 5 2 4 1 3 2 4 3 3 2 8 18 20 25 26 30 26 27 25 23 22 21 21 21 24 24 26 25 22 21 21 17 15 14 11 10 13 12 8 5 9 10 9 8 10 10
7 10 4 4 4 3 1 4 4 5 5 5 8 8 8 19 24 24 31 30 29 29 27 26 23 23 22 24 23 26 25 21 21 19 19 17 16 12 9 10 12 12 8 8 11 9 9 9 9
10 9 6 8 6 4 3 4 1 3 2 4 7 10 13 13 24 26 26 31 30 30 30 27 27 25 26 24 26 28 29 27 24 21 20 17 18 15 11 10 8 12 13 10 10 13 12 10 10
6 5 2 4 2 3 1 3 7 6 5 5 6 7 8 6 11 21 24 28 33 33 31 29 28 27 27 25 25 27 30 31 28 22 21 21 19 17 15 14 11 9 11 14 13 13 14 14 13
2 7 4 3 7 8 4 4 6 7 11 4 3 5 7 6 5 12 16 24 30 30 29 28 30 28 26 28 27 27 28 31 30 27 26 24 21 20 18 17 16 15 13 14 16 14 14 14 15
4 4 4 2 2 7 8 4 4 5 8 7 4 3 7 6 6 8 14 18 29 30 32 30 30 31 31 27 27 28 29 31 31 29 29 26 22 21 18 19 19 19 15 14 16 16 14 13 15
1 3 5 5 5 0 3 4 3 2 4 4 4 5 3 6 8 11 12 16 26 29 33 38 31 31 31 28 27 27 28 30 32 30 29 28 24 21 19 17 17 18 18 19 18 20 20 18 16
Wind_Direction
145 14 35 72 178 89 82 75 91 121 144 110 146 142 106 58 15 70 141 142 154 163 161 160 158 151 148 137 131 133 127 121 123 122 117 117 116 111 116 111 110 112 115 115 117 117 111 112 107
108 41 46 55 77 112 82 30 90 77 122 127 107 116 74 77 73 130 132 142 148 143 140 143 142 152 149 142 132 129 119 117 110 118 118 117 117 115 113 113 113 109 108 109 108 109 111 109 103
75 33 7 68 85 97 71 52 97 108 121 150 106 79 69 69 120 131 141 144 149 141 135 138 137 148 154 144 132 129 125 117 106 118 119 118 118 116 114 110 111 112 115 115 112 108 107 102 97
178 59 46 56 94 64 67 79 116 113 95 119 120 79 76 110 130 142 136 138 139 134 135 130 125 122 138 131 110 122 108 108 137 123 121 117 115 118 116 112 116 117 115 117 111 107 105 97 96
90 36 73 94 79 101 78 86 59 86 85 131 130 110 106 88 147 148 144 146 146 140 136 135 118 116 108 112 109 95 105 136 121 113 114 116 115 115 117 115 116 119 117 113 113 106 104 99 95
151 101 120 133 131 89 86 28 85 84 104 116 115 112 96 123 149 151 148 143 140 140 138 134 135 119 112 114 113 125 131 123 111 113 113 105 109 116 118 117 118 126 115 120 112 108 103 98 95
132 75 110 139 151 154 111 23 28 115 133 111 137 99 134 145 154 154 155 154 151 149 144 133 134 138 129 132 115 120 119 111 110 105 126 112 118 119 117 119 125 127 127 116 114 109 104 97 90
96 92 110 188 189 124 63 56 17 117 94 126 129 148 163 162 160 159 161 162 159 155 157 157 152 146 138 122 121 116 115 118 120 121 126 126 121 122 123 118 127 132 125 118 116 112 102 93 82
77 96 161 191 170 165 98 83 42 234 134 95 42 128 154 154 161 164 166 165 168 166 166 164 154 151 142 139 135 127 125 120 118 113 117 118 112 119 115 118 123 129 124 123 118 114 103 91 83
35 65 177 164 146 150 132 74 351 138 157 89 85 132 154 152 160 163 167 168 169 174 170 165 157 156 155 154 145 136 128 127 123 113 114 117 114 113 115 117 122 128 128 122 118 110 101 89 78
59 29 134 132 123 123 117 113 75 130 188 196 160 150 158 160 166 170 169 173 174 172 169 168 164 159 159 155 148 149 141 139 132 121 118 116 114 113 111 111 118 128 131 127 118 107 98 88 72
102 40 49 133 125 114 115 112 130 221 18 197 168 161 162 171 175 179 176 178 176 175 172 173 172 168 162 160 150 147 146 146 140 132 127 125 121 116 110 111 119 126 129 125 115 104 89 79 67
99 111 83 124 127 128 155 8 331 278 200 162 162 164 167 172 177 176 180 180 179 182 180 179 176 171 162 161 151 145 145 148 144 138 138 135 125 118 117 122 132 140 143 135 127 114 98 74 65
120 107 115 131 128 144 161 165 305 341 152 154 165 171 176 176 177 177 176 183 188 188 186 186 179 172 172 162 155 151 147 147 146 148 151 142 131 130 130 129 140 157 160 148 135 118 102 85 87
131 101 116 117 143 151 143 205 227 122 167 162 173 176 182 184 188 188 183 188 189 192 192 189 186 183 174 167 163 160 154 150 151 152 153 147 145 140 135 123 118 148 167 149 152 139 133 111 105
128 126 126 148 176 138 193 134 170 188 179 176 179 185 190 197 198 201 198 197 197 195 194 192 190 188 181 173 170 169 163 159 157 157 161 168 162 151 138 131 124 141 129 117 138 151 216 217 160
172 132 153 149 190 154 203 306 134 177 182 184 186 192 200 204 208 205 207 208 208 202 200 196 195 192 189 185 183 180 182 175 171 168 172 173 171 170 161 163 153 162 23 113 209 308 311 227 204
176 177 173 191 191 192 203 244 137 185 191 195 195 201 207 215 217 215 214 216 217 211 209 206 202 198 193 195 197 201 195 190 185 188 180 176 177 195 196 209 216 230 245 261 288 328 89 185 203
190 157 148 203 170 187 212 233 223 196 207 191 210 213 212 221 216 220 220 223 222 221 216 210 206 200 202 200 200 198 198 195 194 190 187 187 206 212 210 221 239 255 246 244 252 336 79 204 230
263 298 6 93 166 216 222 241 221 194 206 208 204 214 217 224 220 223 227 224 223 222 219 214 212 207 210 206 211 201 197 207 204 206 206 210 225 209 221 233 252 251 245 227 246 263 230 224 263
243 251 223 298 156 208 276 259 198 210 225 214 218 221 220 223 229 221 225 228 221 220 218 215 212 214 215 209 213 215 214 213 210 213 211 218 221 221 226 234 243 259 239 227 237 234 230 241 265
242 229 217 151 174 241 219 110 267 238 239 234 226 222 222 224 230 233 226 226 218 217 215 212 212 216 214 209 209 208 214 202 203 207 200 200 202 213 229 233 243 253 252 235 233 239 236 241 258
240 159 156 162 144 189 180 257 136 279 261 245 229 232 228 225 224 224 227 222 217 216 211 212 213 212 213 215 219 218 208 208 207 205 205 214 218 226 239 224 228 251 253 239 236 239 243 240 251
146 112 106 126 165 232 115 270 216 195 223 280 201 246 229 225 226 223 227 226 227 220 215 215 213 213 211 209 212 214 205 216 208 208 215 220 224 232 246 233 231 236 263 236 238 238 240 242 239
184 186 162 194 209 267 135 219 282 193 222 264 300 296 260 234 225 219 215 217 225 223 220 216 216 217 212 214 213 208 207 212 216 215 221 226 227 233 248 236 228 234 252 247 240 232 235 237 237
178 215 203 227 240 247 158 228 220 209 201 242 275 298 305 264 221 219 216 218 224 225 223 220 221 219 219 216 219 217 219 222 222 222 228 233 235 234 242 243 244 240 242 248 243 232 236 237 238
158 200 61 110 92 253 175 261 250 201 235 254 280 305 327 317 230 222 221 225 233 229 228 223 222 223 223 223 222 224 223 222 222 223 230 239 242 242 244 248 250 247 242 246 241 238 240 245 249
200 126 184 222 225 247 210 253 251 220 222 221 267 297 316 317 268 227 225 227 229 231 233 234 233 226 225 223 225 228 228 225 230 234 236 240 241 241 250 249 249 254 249 240 239 244 249 254 256
145 171 73 111 310 255 260 246 209 243 213 215 225 313 337 333 303 257 236 225 227 234 224 232 237 233 223 224 227 229 231 232 233 241 239 234 237 238 249 249 253 242 238 238 241 244 251 263 261
81 155 187 244 189 73 298 261 181 213 167 210 277 297 323 331 310 282 261 238 226 225 217 227 235 237 228 225 226 229 232 234 237 239 238 235 239 242 245 247 250 241 242 245 250 253 258 263 264
Height
1513 1512 1511 1512 1517 1512 1520 1521 1517 1522 1524 1526 1527 1529 1530 1533 1533 1539 1541 1543 1545 1547 1549 1551 1552 1554 1556 1558 1559 1560 1561 1562 1563 1563 1563 1565 1566 1567 1569 1569 1570 1571 1572 1574 1575 1576 1577 1578 1578
1513 1512 1512 1512 1515 1517 1524 1519 1521 1522 1526 1528 1529 1531 1533 1536 1537 1539 1543 1545 1547 1549 1551 1553 1554 1556 1557 1560 1561 1563 1563 1564 1564 1565 1565 1566 1568 1569 1571 1572 1573 1574 1575 1577 1578 1579 1579 1580 1580
1513 1513 1514 1512 1518 1523 1524 1520 1521 1525 1528 1529 1530 1532 1535 1539 1539 1542 1544 1546 1549 1551 1553 1555 1556 1557 1560 1561 1563 1563 1565 1566 1564 1567 1568 1569 1570 1573 1573 1574 1576 1577 1577 1579 1581 1582 1583 1582 1583
1513 1514 1515 1516 1522 1524 1522 1521 1523 1526 1528 1529 1531 1535 1540 1542 1543 1544 1546 1549 1551 1553 1555 1556 1558 1559 1559 1563 1564 1565 1565 1567 1569 1569 1569 1570 1572 1574 1575 1576 1577 1579 1580 1582 1583 1583 1585 1585 1586
1514 1513 1515 1523 1525 1524 1523 1524 1524 1526 1528 1530 1531 1537 1541 1543 1544 1546 1549 1552 1554 1555 1556 1558 1560 1560 1561 1564 1566 1566 1566 1569 1571 1571 1572 1573 1575 1577 1577 1578 1579 1582 1583 1584 1586 1586 1587 1588 1589
1514 1514 1520 1525 1525 1524 1525 1525 1524 1526 1530 1532 1533 1536 1544 1544 1546 1549 1551 1553 1555 1557 1559 1561 1562 1564 1564 1567 1568 1568 1569 1571 1573 1573 1575 1576 1577 1577 1579 1581 1582 1585 1586 1587 1588 1589 1590 1591 1592
1513 1515 1524 1523 1524 1524 1525 1525 1525 1526 1530 1533 1534 1538 1544 1546 1547 1550 1553 1555 1556 1558 1560 1562 1565 1566 1567 1568 1569 1569 1571 1572 1573 1574 1574 1578 1579 1581 1582 1583 1584 1587 1588 1589 1590 1591 1592 1593 1594
1514 1517 1527 1526 1526 1525 1526 1525 1527 1528 1531 1534 1535 1537 1543 1544 1547 1550 1553 1555 1557 1559 1561 1563 1565 1566 1568 1569 1569 1571 1571 1573 1575 1578 1579 1581 1582 1582 1583 1585 1587 1588 1590 1591 1592 1594 1595 1595 1595
1514 1518 1524 1526 1526 1524 1526 1526 1529 1530 1532 1535 1536 1537 1539 1542 1546 1550 1553 1556 1558 1560 1562 1564 1567 1568 1569 1571 1571 1573 1573 1573 1576 1578 1581 1581 1582 1584 1585 1587 1588 1590 1591 1593 1594 1596 1597 1597 1597
1515 1517 1517 1518 1521 1525 1527 1529 1532 1532 1533 1537 1537 1538 1541 1543 1547 1550 1553 1556 1559 1560 1563 1565 1567 1569 1570 1571 1573 1574 1575 1576 1578 1579 1581 1583 1584 1585 1587 1589 1590 1592 1593 1594 1596 1598 1599 1599 1599
1517 1518 1517 1520 1522 1524 1528 1531 1532 1533 1534 1535 1536 1538 1542 1545 1549 1551 1554 1557 1559 1562 1564 1566 1568 1570 1572 1573 1575 1576 1577 1578 1580 1582 1584 1585 1587 1588 1590 1591 1592 1593 1595 1597 1598 1599 1600 1601 1601
1517 1519 1519 1522 1524 1526 1530 1532 1533 1534 1534 1535 1537 1538 1541 1545 1548 1552 1554 1556 1559 1562 1565 1567 1569 1571 1573 1575 1576 1578 1580 1581 1583 1584 1587 1589 1590 1591 1592 1594 1595 1596 1597 1599 1601 1601 1602 1603 1603
1517 1520 1522 1523 1526 1528 1530 1532 1532 1532 1534 1534 1537 1541 1543 1546 1549 1552 1555 1558 1560 1563 1566 1568 1571 1573 1575 1576 1578 1580 1582 1584 1585 1587 1589 1591 1592 1593 1595 1596 1597 1598 1600 1601 1602 1603 1604 1604 1604
1519 1520 1524 1526 1527 1529 1532 1534 1535 1531 1533 1536 1537 1541 1544 1546 1549 1552 1554 1557 1560 1563 1566 1569 1572 1574 1576 1578 1580 1582 1584 1585 1587 1589 1591 1593 1594 1596 1597 1598 1599 1600 1601 1603 1604 1605 1606 1606 1606
1520 1522 1524 1527 1528 1529 1531 1535 1532 1533 1535 1536 1539 1542 1545 1547 1550 1552 1555 1558 1561 1564 1566 1569 1572 1575 1577 1579 1582 1584 1586 1587 1589 1591 1593 1595 1596 1598 1599 1600 1601 1602 1603 1604 1606 1606 1607 1608 1608
1520 1520 1525 1527 1528 1530 1530 1534 1531 1532 1535 1536 1539 1542 1545 1547 1549 1552 1555 1558 1561 1563 1566 1569 1572 1575 1578 1580 1583 1585 1587 1588 1590 1592 1594 1596 1598 1599 1600 1601 1603 1603 1604 1605 1606 1607 1608 1608 1609
1521 1527 1525 1528 1527 1528 1531 1530 1531 1532 1535 1537 1538 1541 1543 1547 1548 1550 1554 1557 1560 1563 1566 1569 1572 1575 1578 1580 1583 1585 1588 1589 1592 1593 1595 1597 1599 1600 1601 1603 1603 1604 1605 1606 1607 1607 1608 1608 1609
1525 1522 1524 1524 1526 1528 1529 1528 1531 1533 1535 1536 1538 1540 1543 1545 1546 1550 1553 1556 1559 1562 1565 1568 1571 1574 1577 1580 1582 1585 1587 1590 1592 1594 1595 1597 1598 1600 1601 1603 1604 1605 1606 1606 1607 1607 1607 1608 1609
1513 1517 1522 1520 1522 1525 1525 1524 1527 1532 1534 1535 1536 1539 1540 1541 1545 1548 1551 1554 1557 1560 1563 1566 1569 1573 1576 1579 1581 1584 1586 1589 1591 1593 1594 1596 1598 1600 1601 1602 1603 1605 1606 1606 1607 1607 1607 1608 1609
1514 1515 1519 1522 1522 1525 1524 1524 1524 1528 1529 1531 1533 1535 1537 1538 1543 1545 1549 1551 1554 1558 1561 1563 1567 1571 1575 1578 1581 1583 1586 1588 1590 1592 1593 1595 1597 1599 1600 1601 1603 1604 1605 1606 1606 1607 1608 1608 1608
1513 1514 1515 1517 1525 1524 1525 1524 1522 1524 1525 1528 1529 1532 1535 1536 1538 1541 1545 1548 1552 1554 1557 1560 1564 1568 1573 1576 1579 1582 1584 1586 1589 1591 1592 1594 1596 1598 1599 1600 1601 1602 1603 1604 1606 1607 1608 1608 1608
1514 1504 1513 1520 1519 1526 1523 1529 1523 1520 1521 1523 1525 1527 1530 1532 1534 1538 1541 1544 1547 1550 1555 1558 1562 1565 1570 1574 1576 1579 1581 1584 1587 1590 1591 1593 1595 1597 1598 1599 1600 1601 1602 1602 1604 1606 1607 1607 1608
1505 1505 1509 1514 1518 1521 1525 1523 1518 1522 1517 1515 1521 1524 1525 1526 1530 1532 1536 1540 1544 1548 1552 1556 1559 1562 1566 1570 1573 1576 1579 1582 1585 1588 1590 1591 1593 1595 1596 1597 1599 1599 1600 1601 1602 1604 1605 1606 1607
1505 1508 1515 1516 1517 1527 1524 1522 1514 1519 1515 1513 1517 1519 1521 1524 1526 1529 1533 1538 1541 1545 1548 1552 1556 1559 1562 1566 1569 1572 1575 1579 1582 1585 1588 1590 1592 1593 1594 1595 1597 1598 1599 1599 1601 1602 1603 1604 1605
1503 1507 1521 1529 1527 1527 1525 1524 1509 1512 1514 1515 1515 1517 1519 1520 1521 1525 1528 1531 1536 1540 1544 1548 1552 1555 1559 1562 1566 1570 1573 1577 1580 1583 1586 1587 1589 1590 1592 1592 1594 1595 1597 1598 1599 1600 1601 1602 1603
1500 1498 1512 1537 1533 1523 1527 1524 1506 1510 1514 1516 1516 1514 1513 1513 1516 1521 1525 1527 1531 1536 1541 1544 1548 1552 1556 1559 1563 1567 1571 1574 1577 1580 1583 1585 1587 1588 1589 1591 1591 1593 1594 1595 1596 1598 1599 1600 1601
1504 1506 1504 1517 1530 1526 1520 1516 1504 1510 1511 1512 1513 1513 1512 1510 1513 1516 1520 1522 1527 1531 1536 1540 1544 1548 1552 1556 1559 1562 1566 1570 1573 1576 1580 1582 1584 1586 1587 1588 1589 1590 1591 1592 1594 1595 1596 1597 1598
1492 1502 1510 1511 1531 1534 1523 1523 1509 1508 1507 1509 1511 1511 1510 1511 1512 1513 1516 1519 1523 1526 1531 1536 1540 1544 1548 1552 1555 1558 1561 1565 1569 1573 1576 1579 1582 1583 1584 1585 1586 1587 1588 1589 1590 1592 1593 1594 1595
1500 1501 1510 1507 1518 1516 1524 1512 1499 1501 1503 1506 1509 1511 1510 1509 1510 1511 1512 1515 1517 1521 1526 1528 1534 1539 1543 1547 1550 1554 1557 1561 1565 1567 1571 1574 1577 1579 1580 1582 1582 1583 1584 1585 1586 1588 1589 1589 1591
1493 1494 1494 1501 1520 1525 1518 1508 1499 1501 1504 1507 1509 1510 1510 1509 1507 1506 1506 1508 1510 1514 1519 1524 1529 1533 1538 1542 1546 1549 1553 1557 1560 1562 1566 1569 1571 1573 1576 1577 1578 1579 1580 1582 1583 1583 1584 1585 1586